(505190) = 2012 TH133

Discovered at Haleakala on 2012-10-05 by Pan-STARRS 1.

Orbit

Orbit type: Main Belt

Note: WebGL enabled browser required.

epoch2024-03-31.0
epoch JD2460400.5
perihelion date2022-03-14.90956
perihelion JD2459653.40956
argument of perihelion (°)242.05168
ascending node (°)136.72323
inclination (°)5.16168
eccentricity0.0826980
perihelion distance (AU)2.5642394
Tisserand w.r.t. Jupiter3.3
ΔV w.r.t. Earth (km/sec)10.1
semimajor axis (AU)2.7954145
mean anomaly (°)157.54612
mean daily motion (°/day)0.21087960
aphelion distance (AU)3.027
period (years)4.67
P-vector [x]0.94433454
P-vector [y]0.32451272
P-vector [z]0.05407188
Q-vector [x]-0.32315411
Q-vector [y]0.88416583
Q-vector [z]0.33737546
absolute magnitude17.21
phase slope0.15
uncertainty0
referenceMPEC 2024-F14
observations used137
oppositions12
arc length (days)9305
first opposition used1998
last opposition used2024
residual rms (arc-secs)0.82
perturbers coarse indicatorM-v
perturbers precise indicator003Ek
first observation date used1998-09-25.0
last observation date used2024-03-17.0
computer nameMPCLINUX
JD of orbit computation2458050.207807
perihelion JD uncertainty (days)9.7725E-05
argument of perihelion uncertainty (°)7.3961E-05
ascending node uncertainty (°)7.1404E-05
inclination uncertainty (°)4.6583E-06
eccentricity uncertainty 6.4195E-08
perihelion distance uncertainty (AU)1.7992E-07
Minimum Orbit Intersection Distances (in AU)
for orbit epoch: 2460400.5, reference: E2024-GD4
Mercury2.21357
Venus1.83932
Earth1.57063
Mars1.13114
Jupiter2.38083
Saturn6.28071
Uranus15.4488
Neptune27.2502

Observations

142 total observations over interval: 1998 09 25.327461 – 2024 03 17.460108
These data are available for download (format description).

